| time (UTC) | temp F | wind direction | speed MPH | gust MPH | rain 1hr in | rain 24hr in | rain mn in | humidity % | barometer mb |
| 20260905190412 | 85 | 138 | 2.0 | 3.0 | 0.00 | 0.00 | 0.00 | 23 | 1022.0 |
| 20260905185912 | 86 | 135 | 1.0 | 1.0 | 0.00 | 0.00 | 0.00 | 23 | 1021.9 |
| 20260905185411 | 86 | 135 | 1.0 | 3.0 | 0.00 | 0.00 | 0.00 | 23 | 1021.8 |
| 20260905184912 | 87 | 130 | 2.0 | 5.0 | 0.00 | 0.00 | 0.00 | 22 | 1021.7 |
| 20260905184411 | 87 | 144 | 2.0 | 5.0 | 0.00 | 0.00 | 0.00 | 22 | 1021.6 |
| 20260905183912 | 87 | 135 | 2.0 | 6.0 | 0.00 | 0.00 | 0.00 | 23 | 1021.5 |
| 20260905183412 | 87 | 135 | 2.0 | 5.0 | 0.00 | 0.00 | 0.00 | 22 | 1021.4 |
| 20260905182911 | 87 | 158 | 2.0 | 6.0 | 0.00 | 0.00 | 0.00 | 22 | 1021.3 |
| 20260905182412 | 87 | 135 | 2.0 | 6.0 | 0.00 | 0.00 | 0.00 | 22 | 1021.4 |
| 20260905181912 | 87 | 135 | 6.0 | 9.0 | 0.00 | 0.00 | 0.00 | 21 | 1021.4 |
| 20260905181412 | 88 | 155 | 2.0 | 3.0 | 0.00 | 0.00 | 0.00 | 22 | 1021.2 |
| 20260905180912 | 88 | 146 | 2.0 | 5.0 | 0.00 | 0.00 | 0.00 | 22 | 1021.3 |
| 20260905180411 | 88 | 225 | 2.0 | 5.0 | 0.00 | 0.00 | 0.00 | 21 | 1021.0 |
| 20260905175912 | 89 | 135 | 5.0 | 6.0 | 0.00 | 0.00 | 0.00 | 21 | 1021.0 |
| 20260905175411 | 89 | 135 | 3.0 | 8.0 | 0.00 | 0.00 | 0.00 | 21 | 1021.0 |
| 20260905174911 | 89 | 135 | 9.0 | 13.0 | 0.00 | 0.00 | 0.00 | 21 | 1021.0 |
| 20260905174412 | 89 | 158 | 9.0 | 14.0 | 0.00 | 0.00 | 0.00 | 21 | 1020.8 |
| 20260905173911 | 89 | 151 | 5.0 | 8.0 | 0.00 | 0.00 | 0.00 | 21 | 1020.9 |
| 20260905173411 | 90 | 225 | 6.0 | 9.0 | 0.00 | 0.00 | 0.00 | 21 | 1020.8 |
| 20260905172911 | 90 | 264 | 5.0 | 6.0 | 0.00 | 0.00 | 0.00 | 21 | 1020.8 |
| 20260905172411 | 90 | 270 | 12.0 | 16.0 | 0.00 | 0.00 | 0.00 | 21 | 1020.7 |
| 20260905171912 | 90 | 180 | 9.0 | 15.0 | 0.00 | 0.00 | 0.00 | 21 | 1020.7 |
| 20260905171412 | 91 | 225 | 6.0 | 10.0 | 0.00 | 0.00 | 0.00 | 20 | 1020.7 |
| 20260905170912 | 91 | 301 | 7.0 | 10.0 | 0.00 | 0.00 | 0.00 | 20 | 1020.7 |
| 20260905170411 | 91 | 270 | 7.0 | 15.0 | 0.00 | 0.00 | 0.00 | 20 | 1020.7 |
| 20260905165911 | 91 | 270 | 12.0 | 14.0 | 0.00 | 0.00 | 0.00 | 20 | 1020.7 |
| 20260905165412 | 92 | 301 | 9.0 | 20.0 | 0.00 | 0.00 | 0.00 | 20 | 1020.8 |
| 20260905164912 | 92 | 270 | 8.0 | 13.0 | 0.00 | 0.00 | 0.00 | 20 | 1020.6 |
| 20260905164411 | 92 | 315 | 13.0 | 16.0 | 0.00 | 0.00 | 0.00 | 20 | 1020.7 |
| 20260905163913 | 92 | 315 | 8.0 | 12.0 | 0.00 | 0.00 | 0.00 | 20 | 1020.7 |
| 20260905163412 | 92 | 270 | 10.0 | 17.0 | 0.00 | 0.00 | 0.00 | 20 | 1020.7 |
| 20260905162911 | 92 | 270 | 7.0 | 8.0 | 0.00 | 0.00 | 0.00 | 20 | 1020.7 |
| 20260905162411 | 93 | 270 | 9.0 | 13.0 | 0.00 | 0.00 | 0.00 | 20 | 1020.7 |
| 20260905161912 | 93 | 312 | 5.0 | 7.0 | 0.00 | 0.00 | 0.00 | 20 | 1020.6 |
| 20260905161411 | 94 | 285 | 10.0 | 16.0 | 0.00 | 0.00 | 0.00 | 20 | 1020.7 |
| 20260905160911 | 94 | 287 | 9.0 | 20.0 | 0.00 | 0.00 | 0.00 | 20 | 1020.6 |
| 20260905160412 | 94 | 315 | 14.0 | 17.0 | 0.00 | 0.00 | 0.00 | 11 | 1020.5 |
| 20260905155410 | 94 | 225 | 7.0 | 10.0 | 0.00 | 0.00 | 0.00 | 20 | 1020.5 |
| 20260905154910 | 93 | 225 | 8.0 | 12.0 | 0.00 | 0.00 | 0.00 | 20 | 1020.6 |
| 20260905154411 | 93 | 178 | 10.0 | 14.0 | 0.00 | 0.00 | 0.00 | 20 | 1020.5 |
| 20260905153910 | 94 | 197 | 14.0 | 23.0 | 0.00 | 0.00 | 0.00 | 11 | 1020.5 |
| 20260905153410 | 94 | 270 | 9.0 | 13.0 | 0.00 | 0.00 | 0.00 | 11 | 1020.4 |
| 20260905152910 | 94 | 278 | 13.0 | 20.0 | 0.00 | 0.00 | 0.00 | 20 | 1020.4 |
| 20260905152410 | 94 | 295 | 9.0 | 13.0 | 0.00 | 0.00 | 0.00 | 11 | 1020.5 |
| 20260905151911 | 93 | 357 | 12.0 | 17.0 | 0.00 | 0.00 | 0.00 | 13 | 1020.4 |
| 20260905151410 | 94 | 276 | 10.0 | 15.0 | 0.00 | 0.00 | 0.00 | 11 | 1020.5 |
| 20260905150910 | 94 | 270 | 15.0 | 18.0 | 0.00 | 0.00 | 0.00 | 11 | 1020.4 |
| 20260905150411 | 95 | 309 | 14.0 | 18.0 | 0.00 | 0.00 | 0.00 | 11 | 1020.5 |
| 20260905145910 | 95 | 315 | 15.0 | 18.0 | 0.00 | 0.00 | 0.00 | 11 | 1020.3 |
| 20260905145411 | 96 | 337 | 7.0 | 8.0 | 0.00 | 0.00 | 0.00 | 11 | 1020.4 |
| 20260905144910 | 95 | 283 | 5.0 | 13.0 | 0.00 | 0.00 | 0.00 | 11 | 1020.4 |
| 20260905144409 | 94 | 292 | 8.0 | 13.0 | 0.00 | 0.00 | 0.00 | 11 | 1020.3 |
| 20260905143910 | 95 | 280 | 17.0 | 23.0 | 0.00 | 0.00 | 0.00 | 11 | 1020.4 |
| 20260905143411 | 95 | 286 | 9.0 | 17.0 | 0.00 | 0.00 | 0.00 | 11 | 1020.4 |
| 20260905142911 | 95 | 315 | 10.0 | 20.0 | 0.00 | 0.00 | 0.00 | 11 | 1020.4 |
| 20260905142410 | 95 | 249 | 10.0 | 29.0 | 0.00 | 0.00 | 0.00 | 11 | 1020.3 |
| 20260905141909 | 95 | 292 | 18.0 | 23.0 | 0.00 | 0.00 | 0.00 | 11 | 1020.4 |
| 20260905141411 | 96 | 302 | 13.0 | 17.0 | 0.00 | 0.00 | 0.00 | 11 | 1020.4 |
| 20260905140910 | 96 | 280 | 10.0 | 20.0 | 0.00 | 0.00 | 0.00 | 11 | 1020.5 |
| 20260905140409 | 95 | 294 | 13.0 | 18.0 | 0.00 | 0.00 | 0.00 | 11 | 1020.4 |
| 20260905135911 | 95 | 3 | 15.0 | 21.0 | 0.00 | 0.00 | 0.00 | 12 | 1020.4 |
| 20260905135410 | 96 | 290 | 12.0 | 18.0 | 0.00 | 0.00 | 0.00 | 12 | 1020.5 |
| 20260905134909 | 96 | 0 | 13.0 | 17.0 | 0.00 | 0.00 | 0.00 | 12 | 1020.3 |
| 20260905134411 | 96 | 282 | 8.0 | 13.0 | 0.00 | 0.00 | 0.00 | 12 | 1020.5 |
| 20260905133910 | 96 | 315 | 13.0 | 15.0 | 0.00 | 0.00 | 0.00 | 12 | 1020.5 |
| 20260905133410 | 96 | 301 | 12.0 | 16.0 | 0.00 | 0.00 | 0.00 | 13 | 1020.5 |
| 20260905132911 | 96 | 263 | 8.0 | 12.0 | 0.00 | 0.00 | 0.00 | 12 | 1020.6 |
| 20260905132410 | 96 | 287 | 15.0 | 20.0 | 0.00 | 0.00 | 0.00 | 13 | 1020.6 |
| 20260905131910 | 96 | 262 | 7.0 | 10.0 | 0.00 | 0.00 | 0.00 | 12 | 1020.7 |
| 20260905131411 | 96 | 270 | 8.0 | 13.0 | 0.00 | 0.00 | 0.00 | 13 | 1020.7 |
| 20260905130910 | 96 | 248 | 7.0 | 9.0 | 0.00 | 0.00 | 0.00 | 13 | 1020.8 |
| 20260905130411 | 96 | 57 | 7.0 | 10.0 | 0.00 | 0.00 | 0.00 | 12 | 1020.7 |
| 20260905125910 | 96 | 315 | 12.0 | 16.0 | 0.00 | 0.00 | 0.00 | 12 | 1020.7 |
| 20260905125410 | 95 | 298 | 9.0 | 15.0 | 0.00 | 0.00 | 0.00 | 13 | 1020.7 |
| 20260905124911 | 95 | 278 | 14.0 | 20.0 | 0.00 | 0.00 | 0.00 | 13 | 1020.8 |
| 20260905124410 | 95 | 284 | 14.0 | 20.0 | 0.00 | 0.00 | 0.00 | 13 | 1020.8 |
| 20260905123909 | 95 | 285 | 10.0 | 17.0 | 0.00 | 0.00 | 0.00 | 14 | 1021.0 |
| 20260905123411 | 96 | 8 | 10.0 | 13.0 | 0.00 | 0.00 | 0.00 | 13 | 1020.8 |
| 20260905122911 | 95 | 251 | 9.0 | 13.0 | 0.00 | 0.00 | 0.00 | 13 | 1021.0 |
| 20260905122410 | 95 | 302 | 13.0 | 18.0 | 0.00 | 0.00 | 0.00 | 13 | 1020.9 |
| 20260905121910 | 95 | 290 | 9.0 | 16.0 | 0.00 | 0.00 | 0.00 | 13 | 1020.9 |
| 20260905121411 | 95 | 10 | 12.0 | 17.0 | 0.00 | 0.00 | 0.00 | 13 | 1021.0 |
| 20260905120910 | 94 | 347 | 12.0 | 20.0 | 0.00 | 0.00 | 0.00 | 13 | 1020.8 |
| 20260905120410 | 95 | 244 | 7.0 | 9.0 | 0.00 | 0.00 | 0.00 | 13 | 1020.9 |
| 20260905115911 | 95 | 270 | 12.0 | 16.0 | 0.00 | 0.00 | 0.00 | 13 | 1020.8 |
| 20260905115410 | 95 | 298 | 8.0 | 12.0 | 0.00 | 0.00 | 0.00 | 13 | 1020.9 |
| 20260905114910 | 95 | 312 | 7.0 | 10.0 | 0.00 | 0.00 | 0.00 | 13 | 1020.9 |
| 20260905114411 | 95 | 270 | 12.0 | 15.0 | 0.00 | 0.00 | 0.00 | 13 | 1021.0 |
| 20260905113911 | 94 | 286 | 5.0 | 10.0 | 0.00 | 0.00 | 0.00 | 13 | 1020.8 |
| 20260905113410 | 94 | 290 | 8.0 | 15.0 | 0.00 | 0.00 | 0.00 | 13 | 1021.0 |
| 20260905112911 | 94 | 318 | 12.0 | 17.0 | 0.00 | 0.00 | 0.00 | 13 | 1020.9 |
| 20260905112411 | 95 | 343 | 15.0 | 20.0 | 0.00 | 0.00 | 0.00 | 13 | 1021.0 |
| 20260905111910 | 95 | 315 | 15.0 | 21.0 | 0.00 | 0.00 | 0.00 | 13 | 1021.0 |
| 20260905111409 | 94 | 314 | 10.0 | 17.0 | 0.00 | 0.00 | 0.00 | 13 | 1021.1 |
| 20260905110911 | 94 | 230 | 9.0 | 15.0 | 0.00 | 0.00 | 0.00 | 13 | 1021.2 |
| 20260905110410 | 94 | 277 | 15.0 | 20.0 | 0.00 | 0.00 | 0.00 | 13 | 1021.4 |
| 20260905105909 | 94 | 270 | 9.0 | 10.0 | 0.00 | 0.00 | 0.00 | 13 | 1021.3 |
| 20260905105411 | 94 | 289 | 9.0 | 16.0 | 0.00 | 0.00 | 0.00 | 13 | 1021.4 |
| 20260905104910 | 94 | 334 | 17.0 | 23.0 | 0.00 | 0.00 | 0.00 | 13 | 1021.4 |
| 20260905104411 | 93 | 270 | 14.0 | 20.0 | 0.00 | 0.00 | 0.00 | 14 | 1021.4 |
| 20260905103910 | 94 | 289 | 8.0 | 13.0 | 0.00 | 0.00 | 0.00 | 14 | 1021.2 |
| 20260905103410 | 93 | 298 | 10.0 | 22.0 | 0.00 | 0.00 | 0.00 | 13 | 1021.3 |
| 20260905102911 | 94 | 248 | 14.0 | 20.0 | 0.00 | 0.00 | 0.00 | 14 | 1021.5 |
| 20260905102410 | 94 | 270 | 17.0 | 26.0 | 0.00 | 0.00 | 0.00 | 14 | 1021.5 |
| 20260905101910 | 94 | 270 | 12.0 | 20.0 | 0.00 | 0.00 | 0.00 | 14 | 1021.5 |
| 20260905101409 | 93 | 265 | 6.0 | 8.0 | 0.00 | 0.00 | 0.00 | 14 | 1021.4 |
| 20260905100910 | 93 | 304 | 15.0 | 21.0 | 0.00 | 0.00 | 0.00 | 14 | 1021.5 |
| 20260905100412 | 92 | 315 | 21.0 | 29.0 | 0.00 | 0.00 | 0.00 | 14 | 1021.5 |
| 20260905095910 | 93 | 45 | 16.0 | 23.0 | 0.00 | 0.00 | 0.00 | 14 | 1021.5 |
| 20260905095410 | 93 | 307 | 17.0 | 23.0 | 0.00 | 0.00 | 0.00 | 14 | 1021.5 |
| 20260905094909 | 93 | 288 | 7.0 | 17.0 | 0.00 | 0.00 | 0.00 | 13 | 1021.5 |
| 20260905094411 | 93 | 271 | 13.0 | 21.0 | 0.00 | 0.00 | 0.00 | 14 | 1021.5 |
| 20260905093910 | 92 | 270 | 13.0 | 17.0 | 0.00 | 0.00 | 0.00 | 13 | 1021.6 |
| 20260905093410 | 92 | 270 | 10.0 | 15.0 | 0.00 | 0.00 | 0.00 | 13 | 1021.7 |
| 20260905092911 | 92 | 267 | 8.0 | 15.0 | 0.00 | 0.00 | 0.00 | 14 | 1021.4 |
| 20260905092411 | 91 | 315 | 16.0 | 21.0 | 0.00 | 0.00 | 0.00 | 13 | 1021.5 |
| 20260905091910 | 91 | 135 | 12.0 | 17.0 | 0.00 | 0.00 | 0.00 | 13 | 1021.6 |
| 20260905091410 | 91 | 135 | 12.0 | 17.0 | 0.00 | 0.00 | 0.00 | 13 | 1021.6 |
| 20260905090911 | 91 | 135 | 15.0 | 20.0 | 0.00 | 0.00 | 0.00 | 13 | 1021.6 |
| 20260905090411 | 90 | 135 | 13.0 | 18.0 | 0.00 | 0.00 | 0.00 | 13 | 1021.7 |
| 20260905085910 | 90 | 135 | 8.0 | 10.0 | 0.00 | 0.00 | 0.00 | 13 | 1021.7 |
| 20260905085410 | 90 | 135 | 15.0 | 20.0 | 0.00 | 0.00 | 0.00 | 16 | 1021.8 |
| 20260905084909 | 90 | 135 | 8.0 | 14.0 | 0.00 | 0.00 | 0.00 | 20 | 1021.6 |
| 20260905084411 | 90 | 135 | 7.0 | 10.0 | 0.00 | 0.00 | 0.00 | 20 | 1021.6 |
| 20260905083910 | 89 | 135 | 8.0 | 17.0 | 0.00 | 0.00 | 0.00 | 20 | 1021.7 |
| 20260905083409 | 89 | 135 | 9.0 | 16.0 | 0.00 | 0.00 | 0.00 | 20 | 1021.7 |
| 20260905082911 | 89 | 150 | 9.0 | 17.0 | 0.00 | 0.00 | 0.00 | 20 | 1021.7 |
| 20260905082410 | 88 | 135 | 12.0 | 17.0 | 0.00 | 0.00 | 0.00 | 20 | 1021.7 |
| 20260905081909 | 88 | 135 | 10.0 | 15.0 | 0.00 | 0.00 | 0.00 | 20 | 1021.7 |
| 20260905081410 | 88 | 135 | 9.0 | 14.0 | 0.00 | 0.00 | 0.00 | 21 | 1021.7 |
| 20260905080911 | 87 | 135 | 7.0 | 10.0 | 0.00 | 0.00 | 0.00 | 21 | 1021.6 |
| 20260905080410 | 87 | 135 | 9.0 | 15.0 | 0.00 | 0.00 | 0.00 | 21 | 1021.8 |
| 20260905075910 | 87 | 135 | 8.0 | 12.0 | 0.00 | 0.00 | 0.00 | 23 | 1021.9 |
| 20260905075409 | 87 | 135 | 7.0 | 12.0 | 0.00 | 0.00 | 0.00 | 21 | 1021.9 |
| 20260905074911 | 86 | 135 | 8.0 | 17.0 | 0.00 | 0.00 | 0.00 | 23 | 1021.8 |
| 20260905074410 | 86 | 135 | 12.0 | 14.0 | 0.00 | 0.00 | 0.00 | 24 | 1022.0 |
| 20260905073910 | 85 | 135 | 8.0 | 14.0 | 0.00 | 0.00 | 0.00 | 23 | 1022.0 |
| 20260905073409 | 85 | 135 | 10.0 | 14.0 | 0.00 | 0.00 | 0.00 | 23 | 1021.9 |
| 20260905072911 | 86 | 135 | 9.0 | 15.0 | 0.00 | 0.00 | 0.00 | 23 | 1021.9 |
| 20260905072410 | 86 | 135 | 7.0 | 10.0 | 0.00 | 0.00 | 0.00 | 25 | 1021.9 |
| 20260905071909 | 86 | 135 | 5.0 | 7.0 | 0.00 | 0.00 | 0.00 | 26 | 1021.8 |
| 20260905071411 | 84 | 135 | 3.0 | 6.0 | 0.00 | 0.00 | 0.00 | 30 | 1021.9 |
| 20260905070910 | 81 | 135 | 2.0 | 3.0 | 0.00 | 0.00 | 0.00 | 38 | 1022.1 |
| 20260905070409 | 80 | 158 | 1.0 | 2.0 | 0.00 | 0.00 | 0.00 | 45 | 1021.8 |
| 20260905065911 | 78 | 135 | 1.0 | 2.0 | 0.00 | 0.00 | 0.00 | 43 | 1021.9 |
| 20260905065410 | 77 | 135 | 6.0 | 8.0 | 0.00 | 0.00 | 0.00 | 38 | 1021.8 |
| 20260905064910 | 75 | 130 | 1.0 | 2.0 | 0.00 | 0.00 | 0.00 | 55 | 1021.9 |
| 20260905064411 | 72 | 90 | 1.0 | 2.0 | 0.00 | 0.00 | 0.00 | 59 | 1021.8 |
| 20260905063911 | 72 | 135 | 0.0 | 1.0 | 0.00 | 0.00 | 0.00 | 61 | 1021.9 |
| 20260905063410 | 70 | 73 | 1.0 | 3.0 | 0.00 | 0.00 | 0.00 | 62 | 1022.0 |
| 20260905062909 | 70 | 135 | 5.0 | 7.0 | 0.00 | 0.00 | 0.00 | 63 | 1022.0 |
| 20260905062411 | 69 | 150 | 5.0 | 6.0 | 0.00 | 0.00 | 0.00 | 65 | 1022.1 |
| 20260905061910 | 68 | 149 | 2.0 | 3.0 | 0.00 | 0.00 | 0.00 | 64 | 1022.1 |
| 20260905061409 | 68 | 135 | 0.0 | 0.0 | 0.00 | 0.00 | 0.00 | 66 | 1022.0 |
| 20260905060911 | 67 | 154 | 2.0 | 6.0 | 0.00 | 0.00 | 0.00 | 66 | 1022.0 |
| 20260905060410 | 67 | 142 | 3.0 | 5.0 | 0.00 | 0.00 | 0.00 | 66 | 1021.9 |
| 20260905055911 | 66 | 135 | 1.0 | 2.0 | 0.00 | 0.00 | 0.00 | 67 | 1021.9 |
| 20260905055410 | 66 | 141 | 3.0 | 7.0 | 0.00 | 0.00 | 0.00 | 67 | 1021.6 |
| 20260905054912 | 66 | 135 | 3.0 | 5.0 | 0.00 | 0.00 | 0.00 | 68 | 1021.7 |
| 20260905054410 | 65 | 135 | 2.0 | 3.0 | 0.00 | 0.00 | 0.00 | 70 | 1021.7 |
| 20260905053909 | 64 | 135 | 3.0 | 6.0 | 0.00 | 0.00 | 0.00 | 71 | 1021.6 |
| 20260905053411 | 63 | 145 | 5.0 | 6.0 | 0.00 | 0.00 | 0.00 | 76 | 1021.6 |
| 20260905052910 | 62 | 135 | 5.0 | 6.0 | 0.00 | 0.00 | 0.00 | 76 | 1021.6 |
| 20260905052409 | 62 | 158 | 3.0 | 5.0 | 0.00 | 0.00 | 0.00 | 76 | 1021.5 |
| 20260905051911 | 62 | 158 | 1.0 | 3.0 | 0.00 | 0.00 | 0.00 | 75 | 1021.5 |
| 20260905051410 | 63 | 135 | 2.0 | 3.0 | 0.00 | 0.00 | 0.00 | 74 | 1021.5 |
| 20260905050910 | 63 | 123 | 2.0 | 3.0 | 0.00 | 0.00 | 0.00 | 75 | 1021.5 |
| 20260905050409 | 62 | 158 | 6.0 | 7.0 | 0.00 | 0.00 | 0.00 | 76 | 1021.3 |
| 20260905045910 | 62 | 158 | 1.0 | 2.0 | 0.00 | 0.00 | 0.00 | 75 | 1021.3 |
| 20260905045410 | 62 | 135 | 0.0 | 1.0 | 0.00 | 0.00 | 0.00 | 75 | 1021.2 |
| 20260905044909 | 62 | 135 | 0.0 | 1.0 | 0.00 | 0.00 | 0.00 | 75 | 1021.2 |
| 20260905044411 | 62 | 126 | 3.0 | 5.0 | 0.00 | 0.00 | 0.00 | 75 | 1021.2 |
| 20260905043910 | 63 | 135 | 1.0 | 2.0 | 0.00 | 0.00 | 0.00 | 75 | 1021.3 |
| 20260905043410 | 63 | 135 | 1.0 | 1.0 | 0.00 | 0.00 | 0.00 | 75 | 1021.2 |
| 20260905042910 | 63 | 158 | 1.0 | 2.0 | 0.00 | 0.00 | 0.00 | 75 | 1021.2 |
| 20260905042411 | 62 | 135 | 2.0 | 5.0 | 0.00 | 0.00 | 0.00 | 75 | 1021.2 |
| 20260905041910 | 63 | 135 | 1.0 | 3.0 | 0.00 | 0.00 | 0.00 | 74 | 1021.2 |
| 20260905041410 | 63 | 158 | 1.0 | 2.0 | 0.00 | 0.00 | 0.00 | 75 | 1021.2 |
| 20260905040909 | 62 | 143 | 1.0 | 2.0 | 0.00 | 0.00 | 0.00 | 76 | 1021.2 |
| 20260905040410 | 62 | 158 | 2.0 | 3.0 | 0.00 | 0.00 | 0.00 | 76 | 1021.4 |
| 20260905035416 | 62 | 135 | 2.0 | 5.0 | 0.00 | 0.00 | 0.00 | 76 | 1021.2 |
| 20260905034915 | 62 | 112 | 1.0 | 2.0 | 0.00 | 0.00 | 0.00 | 75 | 1021.2 |
| 20260905034417 | 63 | 119 | 0.0 | 0.0 | 0.00 | 0.00 | 0.00 | 75 | 1021.2 |
| 20260905033915 | 63 | 112 | 0.0 | 1.0 | 0.00 | 0.00 | 0.00 | 74 | 1021.2 |
| 20260905033417 | 63 | 135 | 0.0 | 1.0 | 0.00 | 0.00 | 0.00 | 74 | 1021.2 |
| 20260905032916 | 63 | 135 | 1.0 | 3.0 | 0.00 | 0.00 | 0.00 | 74 | 1021.2 |
| 20260905032416 | 63 | 151 | 3.0 | 3.0 | 0.00 | 0.00 | 0.00 | 75 | 1021.3 |
| 20260905031916 | 63 | 149 | 2.0 | 3.0 | 0.00 | 0.00 | 0.00 | 75 | 1021.3 |
| 20260905031415 | 63 | 135 | 0.0 | 1.0 | 0.00 | 0.00 | 0.00 | 75 | 1021.5 |
| 20260905030916 | 63 | 135 | 1.0 | 3.0 | 0.00 | 0.00 | 0.00 | 75 | 1021.4 |
| 20260905030416 | 63 | 158 | 5.0 | 5.0 | 0.00 | 0.00 | 0.00 | 75 | 1021.4 |
| 20260905025915 | 64 | 135 | 3.0 | 3.0 | 0.00 | 0.00 | 0.00 | 72 | 1021.3 |
| 20260905025417 | 64 | 135 | 1.0 | 1.0 | 0.00 | 0.00 | 0.00 | 72 | 1021.4 |
| 20260905024917 | 64 | 157 | 0.0 | 1.0 | 0.00 | 0.00 | 0.00 | 71 | 1021.5 |
| 20260905024416 | 65 | 147 | 1.0 | 2.0 | 0.00 | 0.00 | 0.00 | 71 | 1021.5 |
| 20260905023916 | 65 | 158 | 2.0 | 3.0 | 0.00 | 0.00 | 0.00 | 71 | 1021.3 |
| 20260905023415 | 64 | 131 | 2.0 | 5.0 | 0.00 | 0.00 | 0.00 | 72 | 1021.4 |
| 20260905022917 | 64 | 135 | 2.0 | 3.0 | 0.00 | 0.00 | 0.00 | 73 | 1021.4 |
| 20260905022416 | 64 | 135 | 2.0 | 5.0 | 0.00 | 0.00 | 0.00 | 73 | 1021.4 |
| 20260905021915 | 64 | 157 | 3.0 | 3.0 | 0.00 | 0.00 | 0.00 | 73 | 1021.6 |
| 20260905021417 | 64 | 158 | 2.0 | 3.0 | 0.00 | 0.00 | 0.00 | 73 | 1021.6 |
| 20260905020916 | 64 | 158 | 2.0 | 3.0 | 0.00 | 0.00 | 0.00 | 72 | 1021.5 |
| 20260905020416 | 64 | 135 | 2.0 | 3.0 | 0.00 | 0.00 | 0.00 | 72 | 1021.4 |
| 20260905015915 | 65 | 145 | 1.0 | 2.0 | 0.00 | 0.00 | 0.00 | 72 | 1021.3 |
| 20260905015416 | 65 | 138 | 1.0 | 3.0 | 0.00 | 0.00 | 0.00 | 72 | 1021.3 |
| 20260905014916 | 65 | 158 | 1.0 | 2.0 | 0.00 | 0.00 | 0.00 | 71 | 1021.4 |
| 20260905014415 | 65 | 140 | 0.0 | 2.0 | 0.00 | 0.00 | 0.00 | 71 | 1021.3 |
| 20260905013917 | 65 | 135 | 2.0 | 3.0 | 0.00 | 0.00 | 0.00 | 70 | 1021.3 |
| 20260905013416 | 66 | 145 | 0.0 | 1.0 | 0.00 | 0.00 | 0.00 | 70 | 1021.3 |
| 20260905012915 | 66 | 158 | 1.0 | 2.0 | 0.00 | 0.00 | 0.00 | 70 | 1021.4 |
| 20260905012417 | 66 | 139 | 1.0 | 3.0 | 0.00 | 0.00 | 0.00 | 70 | 1021.3 |
| 20260905011916 | 66 | 135 | 3.0 | 5.0 | 0.00 | 0.00 | 0.00 | 71 | 1021.3 |
| 20260905011416 | 66 | 114 | 6.0 | 7.0 | 0.00 | 0.00 | 0.00 | 71 | 1021.3 |
| 20260905010915 | 66 | 135 | 2.0 | 3.0 | 0.00 | 0.00 | 0.00 | 71 | 1021.6 |
| 20260905010419 | 66 | 158 | 1.0 | 3.0 | 0.00 | 0.00 | 0.00 | 72 | 1021.5 |
| 20260905005918 | 65 | 133 | 2.0 | 3.0 | 0.00 | 0.00 | 0.00 | 72 | 1021.6 |
| 20260905005417 | 66 | 121 | 0.0 | 1.0 | 0.00 | 0.00 | 0.00 | 71 | 1021.7 |
| 20260905004917 | 66 | 132 | 2.0 | 3.0 | 0.00 | 0.00 | 0.00 | 71 | 1021.8 |
| 20260905004419 | 66 | 158 | 2.0 | 3.0 | 0.00 | 0.00 | 0.00 | 71 | 1021.8 |
| 20260905003918 | 66 | 135 | 1.0 | 3.0 | 0.00 | 0.00 | 0.00 | 71 | 1021.8 |
| 20260905003417 | 66 | 132 | 5.0 | 6.0 | 0.00 | 0.00 | 0.00 | 72 | 1021.9 |
| 20260905002918 | 66 | 135 | 3.0 | 5.0 | 0.00 | 0.00 | 0.00 | 72 | 1021.9 |
| 20260905002418 | 66 | 135 | 0.0 | 1.0 | 0.00 | 0.00 | 0.00 | 71 | 1022.0 |
| 20260905001917 | 67 | 135 | 0.0 | 1.0 | 0.00 | 0.00 | 0.00 | 71 | 1022.0 |
| 20260905001419 | 66 | 146 | 2.0 | 3.0 | 0.00 | 0.00 | 0.00 | 72 | 1022.1 |
| 20260905000918 | 66 | 143 | 0.0 | 1.0 | 0.00 | 0.00 | 0.00 | 72 | 1022.1 |
| 20260905000417 | 66 | 158 | 0.0 | 1.0 | 0.00 | 0.00 | 0.00 | 72 | 1022.1 |
| 20260904235918 | 66 | 129 | 1.0 | 2.0 | 0.00 | 0.00 | 0.00 | 72 | 1022.2 |
| 20260904235417 | 66 | 135 | 0.0 | 0.0 | 0.00 | 0.00 | 0.00 | 71 | 1022.3 |
| 20260904234918 | 67 | 158 | 3.0 | 6.0 | 0.00 | 0.00 | 0.00 | 71 | 1022.2 |
| 20260904234418 | 67 | 158 | 0.0 | 1.0 | 0.00 | 0.00 | 0.00 | 71 | 1022.2 |
| 20260904233918 | 67 | 135 | 0.0 | 1.0 | 0.00 | 0.00 | 0.00 | 71 | 1022.2 |
| 20260904233419 | 68 | 135 | 0.0 | 1.0 | 0.00 | 0.00 | 0.00 | 71 | 1022.3 |
| 20260904232918 | 68 | 143 | 1.0 | 3.0 | 0.00 | 0.00 | 0.00 | 71 | 1022.3 |
| 20260904232418 | 68 | 136 | 3.0 | 3.0 | 0.00 | 0.00 | 0.00 | 71 | 1022.3 |
| 20260904231918 | 67 | 135 | 1.0 | 2.0 | 0.00 | 0.00 | 0.00 | 72 | 1022.4 |
| 20260904231418 | 67 | 158 | 2.0 | 3.0 | 0.00 | 0.00 | 0.00 | 72 | 1022.5 |
| 20260904230917 | 67 | 158 | 1.0 | 2.0 | 0.00 | 0.00 | 0.00 | 72 | 1022.4 |
| 20260904230418 | 67 | 135 | 2.0 | 3.0 | 0.00 | 0.00 | 0.00 | 72 | 1022.4 |
| 20260904225918 | 67 | 135 | 0.0 | 1.0 | 0.00 | 0.00 | 0.00 | 72 | 1022.4 |
| 20260904225417 | 67 | 135 | 0.0 | 0.0 | 0.00 | 0.00 | 0.00 | 72 | 1022.3 |
| 20260904224917 | 67 | 135 | 2.0 | 3.0 | 0.00 | 0.00 | 0.00 | 72 | 1022.4 |
| 20260904224418 | 67 | 135 | 1.0 | 2.0 | 0.00 | 0.00 | 0.00 | 72 | 1022.3 |
| 20260904223917 | 68 | 135 | 2.0 | 2.0 | 0.00 | 0.00 | 0.00 | 72 | 1022.3 |
| 20260904223419 | 68 | 158 | 2.0 | 3.0 | 0.00 | 0.00 | 0.00 | 71 | 1022.3 |
| 20260904222918 | 68 | 158 | 1.0 | 2.0 | 0.00 | 0.00 | 0.00 | 71 | 1022.2 |
| 20260904222417 | 69 | 135 | 0.0 | 1.0 | 0.00 | 0.00 | 0.00 | 70 | 1022.2 |
| 20260904221919 | 69 | 135 | 0.0 | 2.0 | 0.00 | 0.00 | 0.00 | 70 | 1022.2 |
| 20260904221418 | 69 | 147 | 1.0 | 2.0 | 0.00 | 0.00 | 0.00 | 70 | 1022.1 |
| 20260904220918 | 69 | 158 | 2.0 | 6.0 | 0.00 | 0.00 | 0.00 | 70 | 1022.2 |
| 20260904220417 | 69 | 135 | 0.0 | 1.0 | 0.00 | 0.00 | 0.00 | 70 | 1022.1 |
| 20260904215919 | 70 | 141 | 3.0 | 3.0 | 0.00 | 0.00 | 0.00 | 70 | 1022.2 |
| 20260904215418 | 69 | 158 | 3.0 | 3.0 | 0.00 | 0.00 | 0.00 | 70 | 1022.2 |
| 20260904214917 | 70 | 137 | 1.0 | 2.0 | 0.00 | 0.00 | 0.00 | 70 | 1022.0 |
| 20260904214417 | 70 | 135 | 1.0 | 2.0 | 0.00 | 0.00 | 0.00 | 70 | 1022.2 |
| 20260904213918 | 70 | 158 | 1.0 | 2.0 | 0.00 | 0.00 | 0.00 | 69 | 1022.2 |
| 20260904213417 | 71 | 135 | 0.0 | 1.0 | 0.00 | 0.00 | 0.00 | 68 | 1022.2 |
| 20260904212918 | 71 | 135 | 2.0 | 3.0 | 0.00 | 0.00 | 0.00 | 68 | 1022.1 |
| 20260904212417 | 71 | 135 | 3.0 | 3.0 | 0.00 | 0.00 | 0.00 | 68 | 1022.2 |
| 20260904211917 | 71 | 142 | 2.0 | 2.0 | 0.00 | 0.00 | 0.00 | 68 | 1022.3 |
| 20260904211418 | 71 | 135 | 2.0 | 3.0 | 0.00 | 0.00 | 0.00 | 67 | 1022.4 |
| 20260904210918 | 71 | 135 | 0.0 | 2.0 | 0.00 | 0.00 | 0.00 | 66 | 1022.4 |
| 20260904210417 | 72 | 135 | 0.0 | 1.0 | 0.00 | 0.00 | 0.00 | 65 | 1022.4 |
| 20260904205917 | 72 | 158 | 3.0 | 5.0 | 0.00 | 0.00 | 0.00 | 65 | 1022.3 |
| 20260904205418 | 72 | 158 | 2.0 | 5.0 | 0.00 | 0.00 | 0.00 | 65 | 1022.2 |
| 20260904204918 | 72 | 135 | 2.0 | 3.0 | 0.00 | 0.00 | 0.00 | 65 | 1022.4 |
| 20260904204417 | 73 | 142 | 0.0 | 1.0 | 0.00 | 0.00 | 0.00 | 61 | 1022.4 |
| 20260904203917 | 73 | 135 | 1.0 | 3.0 | 0.00 | 0.00 | 0.00 | 61 | 1022.4 |
| 20260904203418 | 73 | 144 | 1.0 | 2.0 | 0.00 | 0.00 | 0.00 | 61 | 1022.4 |
| 20260904202917 | 73 | 156 | 2.0 | 6.0 | 0.00 | 0.00 | 0.00 | 62 | 1022.4 |
| 20260904202417 | 73 | 152 | 1.0 | 2.0 | 0.00 | 0.00 | 0.00 | 61 | 1022.4 |
| 20260904201918 | 73 | 158 | 6.0 | 8.0 | 0.00 | 0.00 | 0.00 | 61 | 1022.4 |
| 20260904201418 | 74 | 158 | 2.0 | 3.0 | 0.00 | 0.00 | 0.00 | 60 | 1022.4 |
| 20260904200917 | 74 | 135 | 0.0 | 1.0 | 0.00 | 0.00 | 0.00 | 60 | 1022.4 |
| 20260904200417 | 74 | 135 | 1.0 | 2.0 | 0.00 | 0.00 | 0.00 | 60 | 1022.5 |
| 20260904195918 | 75 | 135 | 1.0 | 2.0 | 0.00 | 0.00 | 0.00 | 59 | 1022.4 |
| 20260904195418 | 75 | 142 | 0.0 | 2.0 | 0.00 | 0.00 | 0.00 | 59 | 1022.3 |
| 20260904194917 | 74 | 135 | 3.0 | 6.0 | 0.00 | 0.00 | 0.00 | 60 | 1022.3 |
| 20260904194418 | 74 | 158 | 2.0 | 3.0 | 0.00 | 0.00 | 0.00 | 60 | 1022.3 |
| 20260904193918 | 74 | 135 | 1.0 | 5.0 | 0.00 | 0.00 | 0.00 | 59 | 1022.2 |
| 20260904193417 | 75 | 139 | 2.0 | 3.0 | 0.00 | 0.00 | 0.00 | 59 | 1022.3 |
| 20260904192917 | 75 | 158 | 3.0 | 5.0 | 0.00 | 0.00 | 0.00 | 58 | 1022.2 |
| 20260904192418 | 75 | 135 | 2.0 | 3.0 | 0.00 | 0.00 | 0.00 | 57 | 1022.3 |
| 20260904191918 | 76 | 156 | 2.0 | 3.0 | 0.00 | 0.00 | 0.00 | 57 | 1022.2 |
| 20260904191417 | 76 | 158 | 3.0 | 6.0 | 0.00 | 0.00 | 0.00 | 57 | 1022.3 |
| 20260904190919 | 76 | 158 | 2.0 | 3.0 | 0.00 | 0.00 | 0.00 | 57 | 1022.2 |